WetterOnline ( http://www.wetteronline.ch )

Wetter aktuell Kiel

Aktuelles Wetter: Kiel/Holtenau (27m)

6-stündlich | Neueste Meldungen
Ortszeit Temperatur Wetter
So, 16.12. 19:00 -0.3° C bewölkt
So, 16.12. 13:00 0.2° C bewölkt
So, 16.12. 7:00 -0.0° C bewölkt
So, 16.12. 1:00 -0.9° C wolkenlos
Sa, 15.12. 19:00 -0.7° C leicht bewölkt
Sa, 15.12. 13:00 0.8° C wolkig
Sa, 15.12. 7:00 0.4° C bedeckt
Sa, 15.12. 1:00 0.7° C bedeckt
Ortszeit Temperatur Wetter
So, 16.12. 20:00 -0.5° C leichter Schneefall
So, 16.12. 19:50 -0.5° C leichter Schneefall
So, 16.12. 19:40 -0.3° C leichter Schneefall
So, 16.12. 19:30 -0.3° C bewölkt
So, 16.12. 19:20 -0.3° C bewölkt
So, 16.12. 19:10 -0.3° C bewölkt
So, 16.12. 19:00 -0.3° C bewölkt
So, 16.12. 18:30 -0.3° C bewölkt
So, 16.12. 18:00 -0.3° C bewölkt
So, 16.12. 17:30 -0.3° C bedeckt
So, 16.12. 17:00 -0.2° C bedeckt
Ortszeit Relative Feuchte Sichtweite
So, 16.12. 19:00 72% 11 km
So, 16.12. 13:00 66% 18 km
So, 16.12. 7:00 77% 11 km
So, 16.12. 1:00 79% 17 km
Sa, 15.12. 19:00 74% 18 km
Sa, 15.12. 13:00 75% 16 km
Sa, 15.12. 7:00 73% 16 km
Sa, 15.12. 1:00 77% 16 km
Ortszeit Relative Feuchte Sichtweite
So, 16.12. 20:00 76% 3.0 km
So, 16.12. 19:50 76% -
So, 16.12. 19:40 74% -
So, 16.12. 19:30 73% 11 km
So, 16.12. 19:20 73% -
So, 16.12. 19:10 73% -
So, 16.12. 19:00 72% 11 km
So, 16.12. 18:30 72% 12 km
So, 16.12. 18:00 72% 12 km
So, 16.12. 17:30 72% 12 km
So, 16.12. 17:00 69% 13 km
Ortszeit Niederschlagsmenge Niederschlagsart
So, 16.12. 19:00 0.0 l/m2 in 12 Std. -
So, 16.12. 13:00 0.0 l/m2 in 6 Std. -
So, 16.12. 7:00 0.0 l/m2 in 12 Std. -
So, 16.12. 1:00 0.0 l/m2 in 6 Std. -
Sa, 15.12. 19:00 0.0 l/m2 in 12 Std. -
Sa, 15.12. 13:00 0.0 l/m2 in 6 Std. -
Sa, 15.12. 7:00 0.1 l/m2 in 12 Std. Sprühregen
Sa, 15.12. 1:00 0.0 l/m2 in 6 Std. -
Ortszeit Niederschlagsmenge Niederschlagsart
So, 16.12. 20:00 0.1 l/m2 in 1 Std. Schnee
So, 16.12. 19:50 keine Meldung -
So, 16.12. 19:40 keine Meldung -
So, 16.12. 19:30 0.0 l/m2 in 1 Std. -
So, 16.12. 19:20 keine Meldung -
So, 16.12. 19:10 keine Meldung -
So, 16.12. 19:00 0.0 l/m2 in 1 Std. -
So, 16.12. 18:30 0.0 l/m2 in 1 Std. -
So, 16.12. 18:00 0.0 l/m2 in 1 Std. -
So, 16.12. 17:30 0.0 l/m2 in 1 Std. -
So, 16.12. 17:00 0.0 l/m2 in 1 Std. -
Ortszeit Stärke Spitze Richtung
km/h Bft. km/h Grad Sektor
So, 16.12. 19:00 11 2 29 140° SO
So, 16.12. 13:00 14 3 40 130° SO
So, 16.12. 7:00 11 2 36 120° SO
So, 16.12. 1:00 14 3 32 130° SO
Sa, 15.12. 19:00 9 2 26 130° SO
Sa, 15.12. 13:00 7 2 18 120° SO
Sa, 15.12. 7:00 6 1 22 150° SO
Sa, 15.12. 1:00 7 2 22 140° SO
Ortszeit Stärke Spitze Richtung
km/h Bft. km/h Grad Sektor
So, 16.12. 20:00 9 2 20 150° SO
So, 16.12. 19:50 9 2 - 150° SO
So, 16.12. 19:40 9 2 - 150° SO
So, 16.12. 19:30 11 2 18 140° SO
So, 16.12. 19:20 11 2 - 140° SO
So, 16.12. 19:10 9 2 - 150° SO
So, 16.12. 19:00 11 2 22 140° SO
So, 16.12. 18:30 9 2 22 130° SO
So, 16.12. 18:00 11 2 22 130° SO
So, 16.12. 17:30 9 2 22 130° SO
So, 16.12. 17:00 11 2 25 140° SO
Ortszeit Untergrenze Bedeckung Gattung
total tief tief mittel hoch
So, 16.12. 19:00 2100 m 7/8 7/8 - - -
So, 16.12. 13:00 930 m 7/8 7/8 - - -
So, 16.12. 7:00 1080 m 7/8 7/8 - - -
So, 16.12. 1:00 - 0/8 0/8 - - -
Sa, 15.12. 19:00 1020 m 2/8 2/8 - - -
Sa, 15.12. 13:00 510 m 6/8 6/8 - - -
Sa, 15.12. 7:00 720 m 8/8 8/8 - - -
Sa, 15.12. 1:00 1170 m 8/8 8/8 - - -
Ortszeit Bedeckungsgrad in Achtel und Wolkenuntergrenze
So, 16.12. 20:00 8
So, 16.12. 19:50 9 9 9
So, 16.12. 19:40 9 9 9
So, 16.12. 19:30 5(1500m) 6(2100m) 7(2400m)
So, 16.12. 19:20 5(1500m) 6(2100m) 7(2400m)
So, 16.12. 19:10 1(1500m) 7(2400m) 7(3000m)
So, 16.12. 19:00 1(2100m) 7(2700m) 7(3300m)
So, 16.12. 18:30 7(780m) 8(3000m)
So, 16.12. 18:00 7(840m) 8(3000m) 8(3600m)
So, 16.12. 17:30 7(810m) 8(2700m) 8(3600m)
So, 16.12. 17:00 8(810m)
Ortszeit Luftdruck NN (hPa) Tendenz (hPa in 3 Std.)
So, 16.12. 19:00 1013 + 0,1
So, 16.12. 13:00 1014 - 1,7
So, 16.12. 7:00 1016 - 2,6
So, 16.12. 1:00 1021 - 2,9
Sa, 15.12. 19:00 1026 - 1,9
Sa, 15.12. 13:00 1029 - 1,2
Sa, 15.12. 7:00 1030 + 0,2
Sa, 15.12. 1:00 1029 + 0,1
Ortszeit Luftdruck NN (hPa) Tendenz (hPa in 3 Std.)
So, 16.12. 20:00 1014 + 0,5
So, 16.12. 19:50 1014 keine Meldung
So, 16.12. 19:40 1014 keine Meldung
So, 16.12. 19:30 1014 + 0,4
So, 16.12. 19:20 1014 keine Meldung
So, 16.12. 19:10 1014 keine Meldung
So, 16.12. 19:00 1013 + 0,1
So, 16.12. 18:30 1013 + 0,2
So, 16.12. 18:00 1013 + 0,1
So, 16.12. 17:30 1013 + 0,1
So, 16.12. 17:00 1013 - 0,1
Ortszeit Schneehöhe (cm)
So, 16.12. 19:00 0
So, 16.12. 13:00 0
So, 16.12. 7:00 0
So, 16.12. 1:00 0
Sa, 15.12. 19:00 0
Sa, 15.12. 13:00 0
Sa, 15.12. 7:00 0
Sa, 15.12. 1:00 0
Ortszeit Schneehöhe (cm)
So, 16.12. 20:00 0
So, 16.12. 19:50 0
So, 16.12. 19:40 0
So, 16.12. 19:30 0
So, 16.12. 19:20 0
So, 16.12. 19:10 0
So, 16.12. 19:00 0
So, 16.12. 18:30 0
So, 16.12. 18:00 0
So, 16.12. 17:30 0
So, 16.12. 17:00 0
Link zu dieser Seite / Seite empfehlen

Das Wetter in ...